Home   Weather   Toruń   Past weeks

Flag for Poland Past Weather in Toruń, Poland — Yesterday and Last 2 Weeks

Now
47 °F

Passing clouds.


Feels Like: 47 °F
Forecast: 37 / 56 °F
Wind: 1 mph from Northeast

Location: Torun

Current Time: Apr 30, 2017 at 8:53:51 pm

Latest Report: Apr 30, 2017 at 8:00 pm


Visibility: 28 mi

Pressure: 30.21 "Hg

Humidity: 55%

Dew Point: 32 °F

Location of ToruńLocation

Past Weather in Toruń — Graph

°F

Toruń Temperature Yesterday

Maximum temperature yesterday: 51 °F (at 2:00 pm)
Minimum temperature yesterday: 40 °F (at 6:00 am)
Average temperature yesterday: 44 °F

High & Low Weather Summary for the Past Weeks

 TemperatureHumidityPressure
High61 °F (Apr 25, 1:00 pm)96% (Apr 28, 8:00 pm)30.53 "Hg (Apr 28, 8:00 pm)
Low29 °F (Apr 19, 4:00 am)32% (Apr 20, 5:00 pm)29.55 "Hg (Apr 25, 1:00 pm)
Average42 °F68%30.02 "Hg
* Reported Apr 15 7:00 pm — Apr 30 7:00 pm, Toruń, Weather by CustomWeather, © 2017

Note: Actual official high and low records may vary slightly from our data, if they occured in-between our weather recording intervals... More about our weather records

Advertising

Toruń Weather History for the Previous 24 Hours

Scroll right to see more
 ConditionsComfort  
Time TempWeatherWind HumidityBarometerVisibility
7:00 pm
Sun, Apr 30
51 °FScattered clouds.3 mph44%30.21 "Hg31 mi
6:00 pm51 °FScattered clouds.2 mph46%30.22 "Hg31 mi
5:00 pm51 °FScattered clouds.3 mph47%30.23 "Hg31 mi
4:00 pm50 °FPartly sunny.2 mph48%30.23 "Hg28 mi
3:00 pm49 °FPartly sunny.3 mph49%30.25 "Hg25 mi
2:00 pm49 °FOvercast.2 mph54%30.25 "Hg25 mi
1:00 pm49 °FPartly sunny.3 mph55%30.25 "Hg25 mi
12:00 pm48 °FPartly sunny.5 mph57%30.25 "Hg25 mi
11:00 am45 °FPartly sunny.5 mph65%30.25 "Hg25 mi
10:00 am42 °FOvercast.3 mph71%30.25 "Hg31 mi
9:00 am40 °FPartly sunny.2 mph85%30.25 "Hg25 mi
8:00 am39 °FPartly sunny.2 mph88%30.24 "Hg25 mi
7:00 am37 °FScattered clouds.2 mph95%30.23 "Hg11 mi
6:00 am35 °FPassing clouds.1 mph96%30.21 "Hg6 mi
5:00 am35 °FOvercast.2 mph95%30.19 "Hg6 mi
4:00 am35 °FPassing clouds.1 mph93%30.17 "Hg6 mi
3:00 am38 °FOvercast.1 mph95%30.15 "Hg12 mi
2:00 am36 °FPassing clouds.1 mph95%30.13 "Hg8 mi
1:00 am37 °FPassing clouds.3 mph94%30.11 "Hg14 mi
12:00 am37 °FSprinkles. Overcast.5 mph95%30.11 "Hg2 mi
11:00 pm
Sat, Apr 29
41 °FFog.1 mph94%30.08 "Hg2 mi
10:00 pm42 °FPassing clouds.1 mph93%30.07 "Hg2 mi
9:00 pm44 °FSprinkles. Passing clouds.No wind90%30.05 "Hg6 mi
8:00 pm46 °FSprinkles. Overcast.2 mph81%30.04 "Hg9 mi
Weather by CustomWeather, © 2017

See weather overviewHow to use our weather pages